Regional Weather Roundup
Issued by NWS Charleston, SC

Current Version | Previous Version | Graphics & Text | Print | Product List | Glossary On
Versions: 1 2 3 4 5 6 7 8 9 10 11 12 13 14 15 16 17 18 19 20 21 22 23 24 25 26 27 28 29 30 31 32 33 34 35 36 37 38 39 40 41 42 43 44 45 46 47 48 49 50
000 ASUS42 KCHS 172110 RWRCHS REGIONAL WEATHER ROUNDUP NATIONAL WEATHER SERVICE CHARLESTON SC 400 PM EST WED DEC 17 2014 NOTE: "FAIR" INDICATES FEW OR NO CLOUDS BELOW 12,000 FEET WITH NO SIGNIFICANT WEATHER AND/OR OBSTRUCTIONS TO VISIBILITY. NOT ALL STATIONS ARE QUALITY CONTROLLED BY THE NATIONAL WEATHER SERVICE. USE DATA WITH CAUTION...ESPECIALLY DEWPOINT OBSERVATIONS. SCZ027-030-031-034>040-042>050-172200- ...SOUTHEAST SOUTH CAROLINA... CITY SKY/WX TMP DP RH WIND PRES REMARKS N CHARLESTON MOSUNNY 63 41 44 W3 30.07F WATERFRONT PRK N/A 61 N/A N/A S9 N/A MOUNT PLEASANT LGT RAIN 61 43 51 SE5 30.08S PINOPOLIS N/A 63 48 59 VRB3 29.99F MONCKS CORNER FAIR 63 41 45 CALM 30.06F SUMMERVILLE FAIR 63 43 48 W5 30.08S BEAUFORT MCAS PTSUNNY 63 42 46 W6 30.08S BEAUFORT ARPT FAIR 61 45 55 SW7 30.09S HILTON HEAD IS MOSUNNY 57 45 62 E3 30.11R WALTERBORO PTCLDY 64 36 34 W5 30.08S ALLENDALE FAIR 63 41 45 CALM 30.08S ...SOUTHERN MIDLANDS AND PEE DEE... CITY SKY/WX TMP DP RH WIND PRES REMARKS GEORGETOWN NOT AVBL KINGSTREE NOT AVBL ORANGEBURG SUNNY 61 38 42 W8 30.07S BARNWELL FAIR 63 39 42 CALM 30.09S AIKEN FAIR 61 39 44 SW6 30.11S MANNING NOT AVBL COLUMBIA MOSUNNY 62 38 40 W6 30.07S SUMTER SUNNY 62 38 40 W8 30.05F FLORENCE SUNNY 61 38 42 W5 30.05F MYRTLE BEACH SUNNY 57 43 58 S9 30.07S N MYRTLE BEACH MOSUNNY 56 45 66 SW10 30.06S $$ GAZ063-065-086>088-099>101-113>116-118-119-134>141-150-172200- ...SOUTHEAST GEORGIA... CITY SKY/WX TMP DP RH WIND PRES REMARKS SAVANNAH ARPT PTSUNNY 65 40 39 W8 30.09S HUNTER AAF SUNNY 65 42 43 W8 30.07S FORT STEWART SUNNY 64 42 44 W6 30.09S STATESBORO SUNNY 62 43 49 W5 30.09F SYLVANIA PTCLDY 62 43 49 NW5 30.10S CLAXTON FAIR 63 43 48 W8 30.10S ...CSRA...CENTRAL AND FAR SOUTHEAST GEORGIA... CITY SKY/WX TMP DP RH WIND PRES REMARKS THOMSON SUNNY 62 43 50 SW5 30.13R AUGUSTA-BUSH SUNNY 62 38 40 W6 30.08F AUGUSTA-DANIEL SUNNY 62 39 42 VRB3 30.08F SWAINSBORO FAIR 63 45 51 W6 30.10S VIDALIA SUNNY 63 41 45 W3 30.09F EASTMAN FAIR 63 40 43 NW3 30.13S HAZLEHURST FAIR 65 41 41 W5 30.10S ALMA SUNNY 63 39 41 W6 30.10F WAYCROSS SUNNY 67 45 45 NW7 30.11S JESUP FAIR 66 45 45 NW10 30.11S BAXLEY FAIR 64 41 42 NW6 30.10F BRUNSWICK SUNNY 64 41 42 W7 30.11S SAINT SIMONS MOSUNNY 65 41 41 VRB7 30.10R $$ SCZ027-028-034-036>038-045-046-048>050-GAZ119-141-172200- ...LAKE AND SUPPLEMENTAL COASTAL OBSERVATIONS... STATION/POSITION TIME TEMP WIND PRES WAVE SWELL AIR SEA DIR/SP/G HT/PER HT/PER/DIR (UTC) (F) (DEG/KT/KT) (MB) (FT/S) (FT/S/D) UPR LAKE MARION NOT AVBL WINYAH BAY 2000 57 140/ 7 1017.0S LAKE MURRAY 2000 58 210/ 7/ 9 1017.6F ACE BASIN NERRS 2000 60 190/ 1 1019.0S FORT PULASKI 2100 58 57 190/ 4/ 6 1019.4S SAPELO ISLAND 2000 63 180/ 4 1019.0S $$ ANZ835-935-AMZ111-154-330-350-352-354-370-450-454-472-172200- ...C-MAN AND BUOY OBSERVATIONS... STATION/POSITION TIME TEMP WIND PRES WAVE SWELL AIR SEA DIR/SP/G HT/PER HT/PER/DIR (UTC) (F) (DEG/KT/KT) (MB) (FT/S) (FT/S/D) BUOY 41004 2100 61 73 300/ 4/ 8 1018.3R 2/ 5 2/ 5 BUOY 41008 2100 54 59 210/ 4/ 6 1019.5R 1/10 2/100/10 FOLLY BEACH CMAN 2000 57 200/ 6/ 7 1019.6R CAPERS NEARSHORE NOT AVBL FRIPP NEARSHORE NOT AVBL STATION/POSITION TIME TEMP WIND PRES WAVE SWELL AIR SEA DIR/SP/G HT/PER HT/PER/DIR (UTC) (F) (DEG/KT/KT) (MB) (FT/S) (FT/S/D) 5E ST. MARYS GA 2100 62 N/A 1/11 FRYING PAN BUOY 2100 57 67 270/ 6/ 8 1018.9R 2/ 6 2/180/ 6 BUOY 41025 2100 56 1016.7R 3/ 8 CAPE LOOKOUT NC 2000 57 230/ 6/ 8 1016.7F BUOY 41002 2015 68 73 320/ 8/ 12 1017.5R 7/ 8 7/260/ 8 BUOY 41010 2100 71 76 290/ 10/ 12 1018.6S 3/11 3/100/11 ST AUGUSTINE FL 2100 60 30/ 6/ 6 1020.0R $$

USA.gov is the U.S. government's official web portal to all federal, state and local government web resources and services.